Regional Weather Roundup
Issued by NWS

Home | Current Version | Previous Version | Graphics & Text | Print | Product List | Glossary On
Versions: 1 2 3 4 5 6 7 8 9 10 11 12 13 14 15 16 17 18 19 20 21 22 23 24 25 26 27 28 29 30 31 32 33 34 35 36 37 38 39 40 41 42 43 44 45 46 47 48 49 50
000
ASUS43 KDMX 200006
RWRIA

WEATHER ROUNDUP FOR IOWA
NATIONAL WEATHER SERVICE DES MOINES IA
700 PM CDT TUE SEP 19 2017

NOTE: "FAIR" INDICATES FEW OR NO CLOUDS BELOW 12,000 FEET WITH NO
SIGNIFICANT WEATHER AND/OR OBSTRUCTIONS TO VISIBILITY.

* - THESE STATIONS ARE NOT NWS STATIONS...THUS NOT UNDER NWS
QUALITY CONTROL.  THEY ALSO DO NOT REPORT WEATHER SUCH
AS PRECIPITATION OR FOG.

IAZ001>003-012>014-020>022-031>034-043>046-200100-
   NORTHWEST IOWA

CITY           SKY/WX    TMP DP  RH WIND       PRES   REMARKS
CARROLL *      PTCLDY    79  68  69 SE16G25   29.65S HX  81
CHEROKEE *     CLOUDY    78  69  73 SE17      29.59S HX  80
DENISON *      CLEAR     79  68  69 S16G23    29.62S HX  81
LE MARS *      PTCLDY    81  68  65 SE17G30   29.54S HX  83
ORANGE CITY *  CLOUDY    81  72  74 SE16G24   29.56S HX  84
SHELDON *      CLOUDY    79  68  69 SE17G30   29.56S HX  81
SIOUX CITY     CLOUDY    82  68  62 SE16G25   29.53R HX  85
6HR MIN TEMP:  80; 6HR MAX TEMP:  85;

SPENCER        CLOUDY    78  67  68 SE20G30   29.60F HX  80
6HR MIN TEMP:  72; 6HR MAX TEMP:  81;

STORM LAKE *   CLOUDY    77  68  73 SE22G29   29.61F
$$

IAZ055>058-069>071-079>083-090>094-200100-
   SOUTHWEST IOWA

CITY           SKY/WX    TMP DP  RH WIND       PRES   REMARKS
ATLANTIC *     CLEAR     81  68  65 SE12G20   29.65R HX  83
AUDUBON *      CLEAR     79  70  73 SE12G18   29.67S HX  81
CLARINDA *     CLEAR     82  70  65 S15G31    29.67S HX  86
COUNCIL BLFS * CLOUDY    82  70  65 SE20G28   29.60F HX  86
CRESTON *      CLEAR     79 -31   1 SE17G29   29.71S
HARLAN  *      PTCLDY    81  68  65 SE17G23   29.66S HX  83
LAMONI         CLEAR     81  66  60 SE13      29.73S HX  83
6HR MIN TEMP:  78; 6HR MAX TEMP:  85;

RED OAK *      CLEAR     82  68  61 SE14G24   29.64R HX  85
SHENANDOAH *   CLEAR     82  70  65 SE14G21   29.64R HX  86
$$

IAZ047>049-059>061-072>074-084-200100-
   CENTRAL IOWA

CITY           SKY/WX    TMP DP  RH WIND       PRES   REMARKS
AMES           CLEAR     78  67  68 SE15      29.72S HX  80
6HR MIN TEMP:  77; 6HR MAX TEMP:  83;

ANKENY *       CLEAR     79  68  69 SE14      29.72F HX  81
BOONE *        CLEAR     79  66  65 SE18G26   29.70S HX  81
CHARITON *     CLEAR     79  68  69 SE12G18   29.74S HX  81
DES MOINES     PTCLDY    81  68  64 SE21      29.71F HX  84
6HR MIN TEMP:  77; 6HR MAX TEMP:  85;

GRINNELL*      CLEAR     77  65  67 SE8       29.78S
KNOXVILLE *    CLEAR     79  66  65 SE13      29.73F HX  81
MARSHALLTOWN   CLEAR     76  66  71 SE15      29.75F
6HR MIN TEMP:  74; 6HR MAX TEMP:  81;

NEWTON *       CLEAR     77  66  69 SE15      29.75S
PELLA *        CLEAR     80  65  60 SE9G16    29.76F HX  81
PERRY *          N/A     79  69  72 SE12G18   29.68F HX  81
$$

IAZ004>006-015-016-023>025-035-036-200100-
   NORTH CENTRAL IOWA

CITY           SKY/WX    TMP DP  RH WIND       PRES   REMARKS
ALGONA *       CLOUDY    77  68  73 SE16G25   29.67S
CLARION *      CLEAR     77  68  73 SE21G29   29.71R
ESTHERVILLE    CLOUDY    75  68  78 SE20G32   29.62F
6HR MIN TEMP:  72; 6HR MAX TEMP:  80;

FORT DODGE *   CLEAR     79  68  69 SE15G22   29.68F HX  81
MASON CITY     PTCLDY    75  63  66 SE18G25   29.74S
6HR MIN TEMP:  75; 6HR MAX TEMP:  80;

FOREST CITY *    N/A     73  64  73 SE17      29.72R
IOWA FALLS *     N/A     76  66  73 SE10G20   29.75S
$$

IAZ007>011-017>019-026>030-037>042-050>054-066-200100-
   NORTHEAST IOWA

CITY           SKY/WX    TMP DP  RH WIND       PRES   REMARKS
CEDAR RAPIDS   CLEAR     76  64  66 SE8       29.80F
6HR MIN TEMP:  71; 6HR MAX TEMP:  81;

CHARLES CITY * CLEAR     75  64  69 SE15      29.76F
CLINTON *      CLEAR     72  65  78 SE6       29.87S
DECORAH *      CLEAR     73  63  68 SE10      29.79S
DUBUQUE        CLEAR     71  64  78 S8        29.86F
6HR MIN TEMP:  71; 6HR MAX TEMP:  78;

MONTICELLO *   CLEAR     73  64  73 E7        29.82F
OELWEIN *      CLEAR     75  66  73 SE13      29.80S
WATERLOO       CLEAR     75  63  66 SE13      29.76S
6HR MIN TEMP:  72; 6HR MAX TEMP:  80;

$$

IAZ064-065-067-068-078-200100-
   EAST CENTRAL IOWA

CITY           SKY/WX    TMP DP  RH WIND       PRES   REMARKS
DAVENPORT      CLEAR     73  65  75 E10       29.86F
6HR MIN TEMP:  73; 6HR MAX TEMP:  79;

IOWA CITY      CLEAR     79  64  60 SE12      29.81F HX  81
6HR MIN TEMP:  75; 6HR MAX TEMP:  83; 6HR PCP: TRACE;

MT. PLEASANT * CLEAR     76  64  66 SE7       29.82R
MUSCATINE *    CLEAR     79  64  61 SE7       29.82F HX  81
QUAD CITIES    CLEAR     76  63  64 E7        29.84S
6HR MIN TEMP:  75; 6HR MAX TEMP:  82;

$$

IAZ062-063-075>077-085>089-095>099-200100-
   SOUTHEAST IOWA

CITY           SKY/WX    TMP DP  RH WIND       PRES   REMARKS
BURLINGTON     CLEAR     77  67  71 E7        29.82F
6HR MIN TEMP:  73; 6HR MAX TEMP:  81;

FAIRFIELD *    CLEAR     79  64  61 MISG      29.79F HX  81
FORT MADISON * CLEAR     77  68  73 SE7       29.83S
KEOKUK *       CLEAR     79  66  65 SE8       29.81S HX  81
OSKALOOSA *      N/A     78  65  65 SE9       29.78F HX  80
OTTUMWA        CLEAR     79  66  64 SE13      29.77F HX  81
6HR MIN TEMP:  79; 6HR MAX TEMP:  84;

WASHINGTON *   CLEAR     77  66  69 SE9       29.82S
$$

ABBREVIATIONS USED IN REMARKS
   TC - TEMPERATURES IN CELSIUS
  WCI - WIND CHILL INDEX
   HX - HEAT INDEX
  VSB - VISIBILITY
$$





USA.gov is the U.S. government's official web portal to all federal, state and local government web resources and services.